Stündliche Wetter Abdrahmanovo

Heute, 27 Juli, Dienstag

Zeit Temperatur Niederschläge Wind Luftdruck Luftfeuchtigkeit
00:00 +15°C° 0 mm 1 m/S 753 mmHg 55%
01:00 +15°C° 0 mm 1 m/S 753 mmHg 57%
02:00 +15°C° 0 mm 1 m/S 752 mmHg 56%
03:00 +15°C° 0 mm 1 m/S 752 mmHg 55%
04:00 +16°C° 0 mm 2 m/S 752 mmHg 55%
05:00 +17°C° 0 mm 2 m/S 752 mmHg 54%
06:00 +18°C° 0 mm 2 m/S 752 mmHg 53%
07:00 +19°C° 0 mm 3 m/S 752 mmHg 52%
08:00 +21°C° 0 mm 4 m/S 752 mmHg 47%
09:00 +23°C° 0 mm 4 m/S 751 mmHg 42%
10:00 +25°C° 0 mm 5 m/S 751 mmHg 37%
11:00 +26°C° 0 mm 5 m/S 751 mmHg 36%
12:00 +26°C° 0 mm 5 m/S 750 mmHg 35%
13:00 +26°C° 0 mm 4 m/S 750 mmHg 34%
14:00 +26°C° 0 mm 4 m/S 750 mmHg 36%
15:00 +26°C° 0 mm 4 m/S 749 mmHg 38%
16:00 +26°C° 0 mm 4 m/S 749 mmHg 39%
17:00 +25°C° 0.1 mm 4 m/S 749 mmHg 46%
18:00 +24°C° 0.1 mm 3 m/S 749 mmHg 52%
19:00 +22°C° 0.1 mm 3 m/S 749 mmHg 59%
20:00 +20°C° 0.3 mm 3 m/S 749 mmHg 66%
21:00 +19°C° 0.3 mm 2 m/S 749 mmHg 73%
22:00 +17°C° 0.3 mm 2 m/S 749 mmHg 80%
23:00 +16°C° 0 mm 1 m/S 749 mmHg 81%

Morgen, 28 Juli, Mittwoch

Zeit Temperatur Niederschläge Wind Luftdruck Luftfeuchtigkeit
00:00 +16°C° 0 mm 1 m/S 749 mmHg 81%
01:00 +15°C° 0 mm 1 m/S 749 mmHg 82%
02:00 +15°C° 0 mm 1 m/S 749 mmHg 81%
03:00 +15°C° 0 mm 1 m/S 748 mmHg 81%
04:00 +16°C° 0 mm 2 m/S 748 mmHg 80%
05:00 +16°C° 0 mm 2 m/S 748 mmHg 78%
06:00 +17°C° 0 mm 2 m/S 749 mmHg 75%
07:00 +17°C° 0 mm 3 m/S 749 mmHg 73%
08:00 +19°C° 0 mm 4 m/S 749 mmHg 61%
09:00 +20°C° 0 mm 4 m/S 749 mmHg 49%
10:00 +22°C° 0 mm 5 m/S 749 mmHg 38%
11:00 +22°C° 0 mm 5 m/S 749 mmHg 34%
12:00 +23°C° 0 mm 5 m/S 749 mmHg 30%
13:00 +25°C° 0 mm 5 m/S 749 mmHg 26%
14:00 +25°C° 0 mm 5 m/S 748 mmHg 25%
15:00 +26°C° 0 mm 5 m/S 748 mmHg 24%
16:00 +26°C° 0 mm 5 m/S 748 mmHg 24%
17:00 +25°C° 0 mm 4 m/S 748 mmHg 26%
18:00 +25°C° 0 mm 4 m/S 748 mmHg 29%
19:00 +24°C° 0 mm 3 m/S 748 mmHg 31%
20:00 +21°C° 0 mm 3 m/S 748 mmHg 38%
21:00 +18°C° 0 mm 2 m/S 748 mmHg 44%
22:00 +16°C° 0 mm 2 m/S 748 mmHg 50%
23:00 +15°C° 0 mm 1 m/S 748 mmHg 53%

übermorgen, 29 Juli, Donnerstag

Zeit Temperatur Niederschläge Wind Luftdruck Luftfeuchtigkeit
00:00 +15°C° 0 mm 1 m/S 748 mmHg 56%
01:00 +13°C° 0 mm 0 m/S 749 mmHg 59%
02:00 +12°C° 0 mm 0 m/S 748 mmHg 60%
03:00 +12°C° 0 mm 0 m/S 748 mmHg 62%
04:00 +13°C° 0 mm 1 m/S 748 mmHg 63%
05:00 +14°C° 0 mm 1 m/S 748 mmHg 58%
06:00 +16°C° 0 mm 1 m/S 749 mmHg 53%
07:00 +19°C° 0 mm 1 m/S 749 mmHg 48%
08:00 +20°C° 0 mm 2 m/S 748 mmHg 42%
09:00 +22°C° 0 mm 3 m/S 748 mmHg 37%
10:00 +25°C° 0 mm 3 m/S 748 mmHg 31%
11:00 +26°C° 0 mm 4 m/S 747 mmHg 31%
12:00 +27°C° 0 mm 4 m/S 747 mmHg 30%
13:00 +29°C° 0 mm 4 m/S 747 mmHg 29%
14:00 +26°C° 0.2 mm 3 m/S 747 mmHg 46%
15:00 +22°C° 0.2 mm 3 m/S 746 mmHg 62%
16:00 +19°C° 0.2 mm 2 m/S 746 mmHg 79%
17:00 +18°C° 2.7 mm 2 m/S 746 mmHg 85%
18:00 +17°C° 2.7 mm 2 m/S 745 mmHg 90%
19:00 +16°C° 2.7 mm 3 m/S 745 mmHg 96%
20:00 +16°C° 2 mm 3 m/S 744 mmHg 96%
21:00 +15°C° 2 mm 4 m/S 744 mmHg 96%
22:00 +15°C° 2 mm 4 m/S 743 mmHg 95%
23:00 +17°C° 0.1 mm 4 m/S 743 mmHg 95%

30 Juli, Freitag

Zeit Temperatur Niederschläge Wind Luftdruck Luftfeuchtigkeit
00:00 +17°C° 0.1 mm 3 m/S 743 mmHg 95%
01:00 +17°C° 0.1 mm 2 m/S 742 mmHg 95%
02:00 +17°C° 0 mm 2 m/S 742 mmHg 96%
03:00 +16°C° 0 mm 2 m/S 742 mmHg 97%
04:00 +16°C° 0 mm 1 m/S 742 mmHg 98%
05:00 +16°C° 0 mm 2 m/S 742 mmHg 96%
06:00 +17°C° 0 mm 2 m/S 743 mmHg 94%
07:00 +18°C° 0 mm 3 m/S 743 mmHg 93%
08:00 +18°C° 0 mm 3 m/S 743 mmHg 88%
09:00 +19°C° 0 mm 3 m/S 743 mmHg 83%
10:00 +20°C° 0 mm 4 m/S 743 mmHg 78%
11:00 +21°C° 0 mm 4 m/S 743 mmHg 73%
12:00 +23°C° 0 mm 4 m/S 743 mmHg 68%
13:00 +25°C° 0 mm 5 m/S 743 mmHg 63%
14:00 +25°C° 0 mm 5 m/S 743 mmHg 62%
15:00 +25°C° 0 mm 4 m/S 743 mmHg 61%
16:00 +26°C° 0 mm 4 m/S 743 mmHg 60%
17:00 +25°C° 0 mm 4 m/S 743 mmHg 64%
18:00 +25°C° 0 mm 3 m/S 743 mmHg 67%
19:00 +24°C° 0 mm 2 m/S 743 mmHg 70%
20:00 +23°C° 0.5 mm 2 m/S 743 mmHg 77%
21:00 +20°C° 0.5 mm 2 m/S 743 mmHg 84%
22:00 +19°C° 0.5 mm 2 m/S 744 mmHg 91%
23:00 +19°C° 0.1 mm 2 m/S 744 mmHg 92%

31 Juli, Samstag

Zeit Temperatur Niederschläge Wind Luftdruck Luftfeuchtigkeit
00:00 +19°C° 0.1 mm 2 m/S 744 mmHg 92%
01:00 +18°C° 0.1 mm 2 m/S 744 mmHg 93%
02:00 +18°C° 0 mm 2 m/S 744 mmHg 93%
03:00 +18°C° 0 mm 2 m/S 744 mmHg 93%
04:00 +18°C° 0 mm 2 m/S 745 mmHg 93%
05:00 +19°C° 0 mm 2 m/S 745 mmHg 91%
06:00 +20°C° 0 mm 2 m/S 745 mmHg 88%
07:00 +21°C° 0 mm 2 m/S 746 mmHg 85%
08:00 +24°C° 0 mm 2 m/S 746 mmHg 76%
09:00 +26°C° 0 mm 3 m/S 746 mmHg 66%
10:00 +28°C° 0 mm 3 m/S 746 mmHg 57%
11:00 +29°C° 0 mm 3 m/S 746 mmHg 51%
12:00 +30°C° 0 mm 4 m/S 746 mmHg 44%
13:00 +32°C° 0 mm 4 m/S 746 mmHg 38%
14:00 +32°C° 0 mm 4 m/S 746 mmHg 38%
15:00 +31°C° 0 mm 3 m/S 746 mmHg 39%
16:00 +30°C° 0 mm 3 m/S 746 mmHg 40%
17:00 +30°C° 0 mm 2 m/S 746 mmHg 43%
18:00 +29°C° 0 mm 2 m/S 746 mmHg 46%
19:00 +28°C° 0 mm 2 m/S 746 mmHg 49%
20:00 +27°C° 0 mm 1 m/S 746 mmHg 50%
21:00 +26°C° 0 mm 1 m/S 747 mmHg 51%
22:00 +25°C° 0 mm 1 m/S 747 mmHg 53%
23:00 +24°C° 0 mm 1 m/S 747 mmHg 55%

1 August, Sonntag

Zeit Temperatur Niederschläge Wind Luftdruck Luftfeuchtigkeit
00:00 +23°C° 0 mm 1 m/S 747 mmHg 58%
01:00 +23°C° 0 mm 1 m/S 746 mmHg 61%
02:00 +22°C° 0 mm 1 m/S 746 mmHg 62%
03:00 +22°C° 0 mm 1 m/S 747 mmHg 64%
04:00 +22°C° 0 mm 1 m/S 747 mmHg 65%
05:00 +23°C° 0 mm 1 m/S 747 mmHg 63%
06:00 +24°C° 0 mm 2 m/S 747 mmHg 61%
07:00 +25°C° 0 mm 2 m/S 747 mmHg 58%
08:00 +27°C° 0 mm 2 m/S 747 mmHg 53%
09:00 +29°C° 0 mm 3 m/S 746 mmHg 47%
10:00 +32°C° 0 mm 4 m/S 746 mmHg 41%
11:00 +33°C° 0 mm 4 m/S 746 mmHg 39%
12:00 +34°C° 0 mm 4 m/S 746 mmHg 38%
13:00 +35°C° 0 mm 4 m/S 746 mmHg 36%
14:00 +35°C° 0 mm 4 m/S 746 mmHg 36%
15:00 +35°C° 0 mm 4 m/S 745 mmHg 36%
16:00 +35°C° 0 mm 4 m/S 745 mmHg 36%
17:00 +34°C° 0 mm 4 m/S 745 mmHg 40%
18:00 +33°C° 0 mm 4 m/S 745 mmHg 45%
19:00 +30°C° 0 mm 4 m/S 745 mmHg 49%
20:00 +28°C° 0.3 mm 4 m/S 745 mmHg 60%
21:00 +26°C° 0.3 mm 4 m/S 746 mmHg 70%
22:00 +23°C° 0.3 mm 4 m/S 746 mmHg 81%
23:00 +22°C° 0 mm 3 m/S 746 mmHg 82%
Mehr zeigen

Wir brauchen deine Erlaubnis

Meteoprog und unser Service Anbieter werden persönliche Daten aufbewahren, so wie Cookies, Geräte Bezeichnung oder ähnliche Technologien von deinem Gerät und Prozess, so wie Persönliche Daten Inhalte und Werbungen, genauso wie social Media und den Verkehr zu analysieren.

  • Aufbewahrung und/oder Zugang zu deiner Geräte Informationen.

    Cookies, Geräte Bezeichnung oder andere Informationen, können aufbewahrt oder Zugang zu deinem Gerät erhalten, für den Grund, der oben angegeben wird.

  • Personalisierte Werbung und Inhalte, Messungen, Einblick in das Publikum und Produkt Entwicklung.

    Werbungen und Inhalte können personalisiert werden, basierend auf ein Profil. Mehr Daten können besser personalisierte Werbungen und Inhalte hinzufügen. Werbung und Inhalte können gezeigt und gemessen werden. Einblicke über das Publikum, welche die Werbung gesehen haben und den Inhalt, können abgeleitet werden. So wie Daten können genutzt werden, um es zu verbessern oder die Benutzer Erfahrung zu verbessern das System und die Software.

Wenn du “Ich stimme zu” klickst, erlaubst du uns, die Cookies zu benutzen die Geräte Bezeichnung, den Web oder ähnliche Technologien zu benutzen. Deine Settings, können in deinem Gerät bei deinem Browser geändert werden.

Für den bestimmten Zweck, berechtigten Interessen beruhen darauf, mehr als auf den Inhalt. Du kannst mehr darüber in unseren Privaten und Cookie Politik lesen.